Terminal Aerodrome Forecast
Issued by NWS Twin Cities, MN

Home | Current Version | Previous Version | Graphics & Text | Print | Product List | Glossary On
Versions: 1 2 3 4 5 6 7 8 9 10 11 12 13 14 15 16 17 18 19 20 21 22 23 24 25
000
FTUS43 KMPX 061213 CCA
TAFMSP
TAF COR
KMSP 061213Z 0612/0718 24014G24KT P6SM OVC022
     FM061800 25018G30KT P6SM VCSH SCT020 OVC035
     FM062200 27016G25KT P6SM OVC030=

USA.gov is the U.S. government's official web portal to all federal, state and local government web resources and services.